Wind_Speed
15 12 14 15 12 13 13 14 16 16 14 11 9 8 8 8 8 9 8 6 7 7 6 6 5 5 5 5 4 3 3 3 5 4 6 7 9 8 9 6 6 5 4
13 13 16 16 17 16 15 15 18 18 17 12 11 8 8 7 6 8 7 8 7 6 5 6 4 5 3 6 7 9 5 4 4 2 3 3 1 3 4 4 4 3 3
15 13 16 20 18 18 18 17 20 21 18 16 12 10 8 6 7 7 9 9 7 7 6 7 7 3 1 3 4 3 3 3 4 5 3 2 3 6 3 4 6 6 3
14 13 16 18 22 22 18 17 18 22 22 19 14 12 11 10 8 7 7 8 7 7 7 4 3 5 4 3 3 2 1 3 3 2 4 4 3 3 1 1 6 5 6
17 16 20 22 24 20 21 20 18 20 21 21 19 14 13 11 7 8 9 8 8 7 5 3 3 3 2 3 2 2 2 2 2 1 1 1 2 2 3 4 7 5 4
14 14 19 19 21 19 19 19 20 22 21 21 22 19 14 11 10 8 9 7 7 7 7 7 7 6 4 3 3 3 1 1 2 1 1 2 2 3 3 3 7 8 6
13 14 15 21 21 23 23 21 21 23 23 22 21 23 19 15 16 14 10 9 8 8 8 9 9 7 5 5 5 5 5 3 3 3 2 3 5 4 4 4 4 5 5
12 14 19 22 22 24 23 23 22 23 23 23 24 23 22 15 15 14 11 10 10 10 10 10 9 10 9 8 8 7 6 6 4 5 4 4 5 5 6 5 5 5 5
7 13 15 21 22 23 24 25 24 23 24 25 24 23 22 19 15 14 13 10 12 11 12 11 10 11 12 11 9 8 7 8 7 7 7 7 6 6 5 5 4 4 5
7 9 13 18 19 22 21 21 23 24 25 24 23 23 22 22 20 18 17 16 13 11 12 13 12 12 13 12 13 11 9 8 7 6 6 7 7 7 8 7 7 6 5
10 11 12 13 18 17 18 20 21 23 22 24 24 24 22 22 21 20 19 19 15 15 13 14 13 11 11 12 13 13 11 9 8 6 6 7 7 7 6 6 6 7 6
8 7 3 3 10 12 18 21 22 23 25 25 24 25 23 21 20 19 20 19 18 15 16 14 13 11 10 11 13 12 9 8 8 6 6 6 6 6 4 5 7 8 8
4 4 3 6 4 5 12 20 21 25 23 23 24 23 23 23 23 21 20 19 18 16 15 16 16 14 13 12 11 11 10 10 9 8 8 8 6 6 5 5 6 7 7
5 2 4 7 7 8 10 8 19 25 22 21 23 24 25 25 23 21 20 19 20 20 17 18 18 16 15 13 12 11 11 9 9 9 9 9 8 8 6 6 5 6 8
2 3 2 3 9 4 5 7 9 15 19 20 20 21 21 20 18 19 19 18 17 17 18 19 19 18 17 14 13 13 13 9 9 9 9 10 10 12 12 9 7 5 7
3 4 4 1 3 5 1 2 1 3 10 15 16 15 16 17 19 18 18 17 17 17 17 18 19 20 21 18 17 15 14 11 11 9 7 6 9 10 10 7 7 7 6
4 3 0 2 6 7 4 4 4 2 1 6 9 10 12 15 17 16 16 17 17 16 16 17 17 17 19 21 19 17 16 15 11 7 6 6 5 5 4 6 5 6 6
3 3 3 3 3 2 3 3 6 8 5 4 6 9 10 12 14 15 15 14 13 14 14 13 13 12 19 20 20 18 12 7 6 7 6 5 5 5 3 2 3 1 3
2 2 2 4 5 4 4 2 4 7 8 11 12 9 9 9 12 13 12 10 9 7 8 10 12 14 14 14 8 7 6 9 6 5 4 3 2 2 2 4 5 7 8
3 2 1 2 5 5 7 6 6 7 10 11 15 18 18 18 17 16 18 16 9 5 1 5 9 10 9 6 5 5 7 8 8 7 5 4 2 1 1 5 7 9 8
4 3 2 2 4 5 7 8 7 6 6 8 6 12 11 15 16 16 20 18 13 10 11 13 13 13 9 8 8 7 9 10 9 7 6 5 5 4 5 7 7 8 11
6 4 2 2 4 4 5 8 7 4 4 5 6 2 10 12 12 16 17 18 18 18 21 19 14 12 12 11 9 9 7 9 9 8 9 9 8 7 8 10 12 13 11
7 4 2 1 3 4 2 3 4 3 2 3 5 6 7 8 12 15 17 18 19 24 23 24 19 15 11 15 10 11 11 10 9 10 11 11 10 11 11 11 11 10 8
9 6 3 2 0 2 3 1 3 3 4 3 2 4 10 12 12 16 19 19 21 21 20 19 19 16 14 14 14 14 15 13 13 12 10 9 10 13 13 10 9 8 8
10 8 4 2 1 1 2 2 1 2 7 9 10 9 10 11 14 15 12 13 12 12 18 19 22 20 17 15 15 16 18 16 15 15 11 9 9 10 9 10 10 10 10
10 9 6 4 2 2 1 1 1 4 8 11 12 14 13 12 14 15 15 13 13 12 13 16 16 16 15 17 16 14 15 15 15 11 9 8 9 10 10 9 9 10 10
Wind_Direction
238 227 218 216 208 208 204 207 209 213 211 208 208 212 215 213 236 227 234 236 240 242 267 293 311 281 263 251 254 292 310 350 350 309 297 285 284 283 305 316 326 328 335
226 221 213 212 210 204 209 214 210 213 215 212 199 199 194 209 212 202 220 232 232 244 277 289 297 315 262 247 255 265 295 296 356 339 304 327 353 32 349 355 7 346 6
226 213 210 212 209 207 206 211 207 212 216 212 204 195 190 204 198 219 227 236 235 240 286 295 254 279 315 266 237 271 276 302 18 30 359 298 11 340 343 9 14 27 343
229 220 207 207 211 207 203 207 209 211 219 217 213 213 204 203 210 215 220 215 232 242 281 307 204 215 254 243 246 281 326 18 22 30 51 40 34 356 309 22 359 13 32
220 211 208 207 211 200 201 205 209 214 214 219 219 221 217 207 209 219 214 229 224 238 252 261 249 229 227 229 226 259 305 356 18 334 39 14 20 1 315 330 358 353 23
228 222 215 206 212 211 202 202 206 217 221 223 221 220 222 214 207 204 207 202 211 225 238 247 243 232 233 229 256 249 270 310 315 307 328 310 320 318 316 318 335 342 356
224 213 208 205 206 208 206 203 207 213 217 221 219 226 230 225 220 223 220 219 221 217 230 237 243 253 257 254 249 273 274 285 261 279 271 284 268 267 283 290 319 327 340
232 222 215 208 206 206 207 206 207 212 213 218 225 229 233 232 230 230 229 225 227 234 227 233 246 250 249 248 249 250 252 263 275 282 279 277 274 264 266 272 314 324 315
252 230 220 221 208 208 208 209 209 213 212 216 222 228 231 227 230 234 232 231 237 239 234 237 249 262 255 249 247 252 265 274 272 281 280 275 282 275 278 259 265 296 312
320 253 223 219 218 213 213 213 217 217 216 215 220 223 227 232 235 241 242 240 243 241 233 239 249 258 252 247 253 262 264 268 279 265 264 280 281 277 275 273 270 258 265
329 315 241 210 219 210 218 216 219 222 222 221 220 221 223 226 232 236 240 241 247 245 242 239 244 249 245 241 251 262 266 271 269 262 274 283 279 277 278 277 270 266 263
334 335 287 261 209 219 224 222 223 224 225 223 220 221 222 222 228 235 236 241 242 242 240 240 240 246 244 248 255 255 252 261 261 261 255 260 268 276 280 290 290 281 276
323 45 251 245 277 266 254 237 227 228 227 222 222 222 223 223 224 230 235 234 238 244 244 245 244 245 249 255 255 262 261 258 249 256 259 267 264 272 275 283 289 289 284
307 349 1 327 322 314 308 275 246 234 228 222 223 220 221 222 224 223 230 233 234 236 241 248 253 253 251 252 252 260 264 264 264 261 263 264 258 261 260 269 275 289 290
319 331 6 332 317 300 334 332 258 241 230 229 227 228 230 230 227 224 223 229 230 237 241 248 256 263 260 260 256 253 255 255 259 261 264 274 263 260 264 266 280 286 288
312 323 6 178 290 289 342 19 333 234 230 228 234 235 231 230 226 224 222 222 232 235 234 240 246 256 261 266 268 254 258 257 256 257 269 272 278 275 270 262 278 288 292
287 288 0 302 226 254 264 305 326 358 189 208 220 229 221 226 228 223 221 219 222 225 232 241 247 250 260 261 260 255 258 254 246 246 251 243 245 244 235 262 281 290 292
253 255 223 227 254 268 280 298 286 268 267 243 221 219 220 218 219 211 206 208 211 220 222 234 247 244 252 258 259 257 247 237 226 230 237 225 238 257 266 201 241 9 51
191 247 248 248 259 280 283 290 303 284 259 257 256 250 229 195 182 177 175 175 166 187 220 215 224 239 243 251 255 240 223 228 236 234 218 202 225 266 250 180 168 121 97
180 198 198 254 280 289 287 294 296 295 276 271 253 257 243 236 231 238 241 230 209 177 126 221 219 222 215 215 228 201 206 193 178 162 141 150 153 45 246 183 167 140 129
180 183 218 278 296 295 285 264 270 270 272 295 297 257 245 237 239 238 224 209 187 161 143 157 155 159 161 167 186 179 184 185 169 167 140 130 114 107 103 121 129 131 127
183 201 251 309 304 303 274 243 239 266 298 5 5 330 228 226 222 209 188 185 178 162 153 143 139 136 144 147 149 152 165 171 160 153 130 117 121 116 122 120 121 125 125
186 201 251 291 337 332 289 230 241 248 194 102 69 79 117 143 156 169 159 151 152 142 141 142 144 138 141 134 133 137 151 127 136 134 120 115 114 108 95 106 116 112 116
186 185 197 258 343 8 335 267 274 242 205 167 137 106 113 120 125 132 133 135 137 137 139 138 133 136 140 132 141 137 125 140 136 114 115 122 110 106 105 101 96 97 102
181 181 193 232 323 37 345 293 216 189 175 140 130 123 122 129 135 137 138 136 137 148 153 155 155 152 146 152 153 148 150 149 149 140 135 126 117 107 101 94 94 92 92
182 185 190 202 202 148 232 284 219 192 164 137 138 138 130 129 126 120 110 116 132 143 153 153 157 153 155 153 147 143 142 144 145 130 129 121 123 120 114 108 99 92 93
Height
805 812 815 818 822 824 828 830 832 836 839 842 843 845 847 848 849 850 851 852 853 854 855 855 856 856 856 857 857 857 856 856 854 853 851 849 847 848 847 849 848 846 844
803 808 812 815 818 822 825 828 830 833 837 841 842 844 845 847 849 849 851 851 852 853 854 855 856 856 856 857 857 857 858 856 854 854 851 847 847 848 847 848 848 846 844
798 802 808 811 814 818 821 825 828 831 836 839 841 842 844 846 848 848 849 850 851 853 853 854 855 856 856 857 856 857 857 857 855 854 855 850 849 850 848 848 848 845 845
795 798 803 808 810 812 818 823 827 829 833 837 839 840 842 845 846 847 848 850 851 852 853 853 854 855 857 857 856 857 857 857 856 855 855 854 855 852 848 849 847 846 846
789 793 797 801 805 810 814 819 825 827 831 834 837 839 841 843 844 845 847 848 850 851 853 853 854 856 857 857 857 857 857 857 857 856 856 855 855 856 855 847 847 846 846
787 790 794 800 804 809 813 817 821 824 828 831 833 836 839 840 842 843 846 848 850 851 852 853 854 855 856 857 856 858 856 856 856 856 855 855 855 855 854 851 848 847 845
785 787 790 796 799 804 808 813 818 821 824 828 831 833 836 838 841 844 844 845 847 849 850 852 853 853 854 856 856 856 855 855 855 855 855 854 855 855 854 852 849 847 845
783 784 786 790 795 799 804 808 812 817 821 824 827 830 833 836 838 840 841 843 845 846 848 850 851 852 853 854 854 854 854 854 854 854 854 854 853 853 853 852 850 846 845
780 780 785 787 791 794 798 802 807 811 816 820 824 827 830 833 835 836 838 840 842 844 846 847 848 850 850 852 852 852 853 852 852 852 852 852 851 851 851 850 849 849 845
780 780 781 784 786 790 795 800 803 807 811 815 820 823 826 829 831 834 836 837 840 841 843 844 845 846 847 848 849 850 849 850 850 850 849 848 849 848 849 848 847 847 848
782 780 779 784 785 787 791 794 799 803 807 811 814 819 822 825 828 830 833 835 837 839 840 842 843 844 844 845 846 847 846 847 848 847 846 846 846 846 845 845 844 845 845
783 780 780 784 786 786 787 789 792 796 800 805 809 812 816 820 823 826 829 831 833 836 837 839 840 840 841 843 844 845 845 845 845 845 844 844 844 844 843 843 842 843 843
780 781 781 783 785 786 787 787 788 790 794 798 802 806 809 814 816 820 824 826 829 832 834 835 836 836 837 839 840 841 841 841 841 842 842 842 841 841 841 842 841 841 841
781 779 782 785 784 782 782 782 784 786 791 794 796 799 802 805 810 813 817 821 823 826 829 831 832 832 833 835 836 837 838 838 839 839 839 839 839 839 839 839 840 840 839
783 784 782 784 784 785 783 781 782 784 786 789 791 793 797 801 804 808 811 815 819 821 823 826 829 831 832 832 832 834 835 835 836 836 836 836 836 837 836 837 837 837 836
781 783 782 785 785 784 783 785 784 783 784 786 788 791 794 797 799 802 805 808 812 815 818 821 823 825 827 829 829 830 831 832 832 832 832 832 832 832 832 833 833 833 833
779 780 782 784 786 787 786 786 785 783 783 784 787 789 790 793 795 797 800 801 804 808 811 815 817 819 822 823 825 826 827 828 829 829 829 830 830 830 831 830 830 830 830
779 779 780 782 784 784 784 783 782 783 784 784 785 786 785 788 791 792 794 797 800 803 805 809 811 814 815 818 820 821 823 825 826 826 827 828 828 827 828 830 828 828 827
778 779 779 781 781 782 783 781 781 782 781 782 784 783 785 786 788 789 791 793 794 798 801 801 805 808 812 815 817 819 820 822 824 824 825 825 825 825 825 826 826 827 828
777 778 779 781 781 780 780 778 777 778 780 780 780 781 782 784 786 786 789 790 791 791 794 798 801 804 808 812 816 817 818 820 822 823 823 823 824 824 824 825 825 826 827
777 779 780 780 779 778 778 776 776 777 779 779 775 777 773 779 781 781 784 785 787 788 789 795 800 804 808 810 814 815 817 820 821 823 822 823 824 824 825 826 826 827 829
778 779 779 779 779 777 776 774 774 774 775 774 773 769 772 775 775 776 777 779 779 782 786 792 801 805 807 810 812 813 817 820 821 823 823 822 824 825 825 826 827 828 830
777 778 778 779 779 778 775 774 773 773 773 773 775 775 773 773 772 775 776 778 780 782 787 793 800 803 810 807 810 811 817 816 822 825 825 826 827 825 828 829 831 831 832
775 777 778 779 778 777 776 775 774 774 775 774 776 778 777 777 780 780 780 781 783 785 790 795 799 805 810 810 813 813 810 819 825 827 827 831 830 827 831 833 834 834 834
773 776 777 777 776 775 775 776 774 774 775 774 775 777 779 780 782 783 783 785 787 791 792 796 800 805 807 812 815 815 817 819 824 828 830 831 831 831 834 833 835 836 836
771 773 775 776 777 776 777 776 774 775 775 776 778 779 780 784 784 785 787 791 793 796 797 800 803 807 811 814 815 817 820 824 826 828 831 832 832 832 833 836 837 837 838